New Orleans, LA

12:35 AM CDT on May 23, 2017 (GMT -0500)
New Orleans International

Weather History for KMSY - July, 2013

Change the Weather History Date:

Saturday, July 20, 2013

  Actual Average Record
Temperature  
Mean Temperature 82 °F -  
Max Temperature 90 °F 90 °F 98 °F (2000)
Min Temperature 75 °F 73 °F 69 °F (1964)
Cooling Degree Days 18    
Growing Degree Days 32 (Base 50)    
Moisture  
Dew Point 73 °F    
Average Humidity 76    
Maximum Humidity 91    
Minimum Humidity 50    
Precipitation  
Precipitation 0.00 in - - ()
Sea Level Pressure  
Sea Level Pressure 29.99 in    
Wind  
Wind Speed 3 mph (SSW)    
Max Wind Speed 12 mph    
Max Gust Speed 20 mph    
Visibility 10 miles    
Events Rain , Thunderstorm    
Averages and records for this station are not official NWS values.
T = Trace of Precipitation, MM = Missing Value Source: NWS Daily Summary

Daily Weather History Graph

Daily Weather History Graph

Search for Another Location

Airport or City:

Trip Planner

Search our weather history database for the weather conditions in past years. The results will help you decide how hot, cold, wet, or windy it might be!

Date:

Astronomy

Jul. 20, 2013 Rise Set
Actual Time 6:13 AM CDT 8:01 PM CDT
Civil Twilight 5:46 AM CDT 8:27 PM CDT
Nautical Twilight 5:14 AM CDT 8:59 PM CDT
Astronomical Twilight 4:40 AM CDT 9:33 PM CDT
Moon 6:05 PM CDT (7/20) 3:52 AM CDT (7/20)
Length of Visible Light 14h 41m
Length of Day
13h 48m
Waxing Gibbous, 94% of the Moon is Illuminated
Jul 20
Waxing Gibbous
Jul 22
Full
Jul 29
Last Quarter
Aug 6
New
Aug 14
First Quarter

Hourly Weather History & Observations

Time (CDT) Temp. Heat Index Dew Point Humidity Pressure Visibility Wind Dir Wind Speed Gust Speed Precip Events Conditions
12:53 AM 79.0 °F - 73.0 °F 82% 29.98 in 10.0 mi Calm Calm - N/A   Scattered Clouds
1:53 AM 78.1 °F - 73.0 °F 84% 29.98 in 10.0 mi Calm Calm - N/A   Scattered Clouds
2:53 AM 75.9 °F - 72.0 °F 87% 29.98 in 10.0 mi Calm Calm - N/A   Scattered Clouds
3:53 AM 77.0 °F - 73.0 °F 88% 29.98 in 10.0 mi Calm Calm - N/A   Scattered Clouds
4:53 AM 75.9 °F - 73.0 °F 91% 29.98 in 10.0 mi Calm Calm - N/A   Scattered Clouds
5:53 AM 75.9 °F - 73.0 °F 91% 29.99 in 10.0 mi WSW 3.5 mph - N/A   Scattered Clouds
6:53 AM 77.0 °F - 73.9 °F 90% 29.99 in 10.0 mi Calm Calm - N/A   Mostly Cloudy
7:53 AM 81.0 °F 86.7 °F 75.0 °F 82% 30.00 in 10.0 mi Calm Calm - N/A   Mostly Cloudy
8:53 AM 84.0 °F 91.9 °F 75.0 °F 74% 30.01 in 10.0 mi Variable 3.5 mph - N/A   Mostly Cloudy
9:53 AM 86.0 °F 93.8 °F 73.9 °F 67% 30.01 in 10.0 mi NNW 4.6 mph - N/A   Mostly Cloudy
10:53 AM 88.0 °F 96.5 °F 73.9 °F 63% 30.02 in 10.0 mi North 4.6 mph - N/A   Mostly Cloudy
11:53 AM 89.1 °F 97.0 °F 73.0 °F 59% 30.01 in 10.0 mi NE 9.2 mph - N/A   Mostly Cloudy
12:53 PM 88.0 °F 94.7 °F 72.0 °F 59% 30.01 in 10.0 mi Calm Calm - N/A   Mostly Cloudy
1:30 PM 87.8 °F 93.8 °F 71.6 °F 58% 29.98 in 10.0 mi Calm Calm - N/A Thunderstorm Thunderstorm
1:53 PM 82.9 °F 89.4 °F 73.9 °F 74% 29.99 in 8.0 mi SE 9.2 mph 19.6 mph 0.00 in Rain , Thunderstorm Light Thunderstorms and Rain
2:53 PM 79.0 °F - 73.0 °F 82% 29.99 in 10.0 mi Calm Calm - 0.00 in Thunderstorm Thunderstorm
3:08 PM 80.6 °F 85.4 °F 73.4 °F 79% 29.98 in 10.0 mi West 4.6 mph - N/A   Overcast
3:53 PM 81.0 °F 85.2 °F 72.0 °F 74% 29.97 in 10.0 mi SSW 5.8 mph - N/A   Overcast
4:53 PM 84.9 °F 93.3 °F 75.0 °F 72% 29.95 in 10.0 mi SSW 8.1 mph - N/A   Mostly Cloudy
5:53 PM 82.9 °F 88.8 °F 73.0 °F 72% 29.95 in 10.0 mi SSW 8.1 mph - N/A   Mostly Cloudy
6:53 PM 84.0 °F 90.2 °F 73.0 °F 69% 29.94 in 10.0 mi South 11.5 mph - N/A   Mostly Cloudy
7:53 PM 82.0 °F 87.4 °F 73.0 °F 74% 29.95 in 10.0 mi South 10.4 mph - N/A   Mostly Cloudy
8:53 PM 80.1 °F 84.2 °F 73.0 °F 79% 29.97 in 10.0 mi South 10.4 mph - N/A   Mostly Cloudy
9:53 PM 80.1 °F 84.2 °F 73.0 °F 79% 30.00 in 10.0 mi South 8.1 mph - N/A   Mostly Cloudy
10:53 PM 79.0 °F - 73.0 °F 82% 30.01 in 10.0 mi SSW 10.4 mph - N/A   Mostly Cloudy
11:53 PM 79.0 °F - 73.0 °F 82% 30.01 in 10.0 mi SSW 10.4 mph - N/A   Mostly Cloudy